DD6UBW Weather Reports


time (UTC)temp
C
wind
direction
speed
KPH
gust
KPH
rain 1hr
cm
rain 24hr
cm
rain mn
cm
humidity
%
barometer
mb
20260505063000 13 20 3.2 0.0 0.00 0.00 0.00 81 1009.6
20260505060003 13 35 4.8 0.0 0.00 0.00 0.00 82 1009.6
20260505053001 13 70 4.8 0.0 0.00 0.00 0.00 82 1009.6
20260505040001 13 80 1.6 0.0 0.00 0.00 0.00 78 1009.6
20260505033001 13 0 0.0 0.0 0.00 0.00 0.00 78 1009.6
20260505030001 13 80 0.0 0.0 0.00 0.00 0.00 79 1009.6
20260505023000 13 240 0.0 0.0 0.00 0.00 0.00 79 1009.6
20260505020000 13 45 0.0 0.0 0.00 0.00 0.00 78 1009.6
20260505013001 13 45 1.6 0.0 0.00 0.00 0.00 77 1009.6
20260505010000 13 85 0.0 0.0 0.00 0.00 0.00 77 1010.6
20260505003001 13 120 3.2 0.0 0.00 0.00 0.00 78 1010.6
20260505000002 13 60 0.0 0.0 0.00 0.00 0.00 78 1010.6
20260504233000 13 25 0.0 0.0 0.00 0.00 0.00 77 1010.6
20260504230002 14 20 1.6 0.0 0.00 0.00 0.00 76 1010.6
20260504223001 14 100 6.4 0.0 0.00 0.00 0.00 75 1011.6
20260504220001 15 65 3.2 0.0 0.00 0.00 0.00 74 1011.6
20260504213000 16 55 3.2 0.0 0.00 0.00 0.00 71 1011.6
20260504210001 16 70 3.2 0.0 0.00 0.00 0.00 70 1011.6
20260504203001 16 115 1.6 0.0 0.00 0.00 0.00 73 1011.6
20260504200001 16 95 0.0 0.0 0.00 0.00 0.00 71 1011.6
20260504193001 16 110 0.0 0.0 0.00 0.00 0.00 69 1011.6
20260504190000 17 90 0.0 0.0 0.00 0.00 0.00 65 1011.6
20260504183001 19 75 0.0 0.0 0.00 0.00 0.00 61 1010.6
20260504180001 20 35 0.0 0.0 0.00 0.00 0.00 58 1010.6
20260504173000 21 210 9.7 0.0 0.00 0.00 0.00 56 1010.6